Location: Arrien
(43.3167°N, 0.1500°W)
Time: 22:57:16
(UTC+00:00)

Cosmos 724 - Pass Details

Date: 15 October 2021
Orbit: 857 x 937 km, 65.6° (Epoch: 04 December)

Event Time Altitude Azimuth Distance (km) Brightness Sun altitude
Rises 19:15:26 0° 328° (NNW) 3,535 8.0 -22.2°
Reaches altitude 10° 19:18:01 10° 332° (NNW) 2,578 7.2 -22.7°
Maximum altitude 19:23:56 62° 53° (NE) 990 4.3 -23.7°
Enters shadow 19:24:46 56° 91° (E) 1,043 4.3 -23.9°
